Regional Weather Roundup
Issued by NWS

Home | Current Version | Previous Version | Graphics & Text | Print | Product List | Glossary On
Versions: 1 2 3 4 5 6 7 8 9 10 11 12 13 14 15 16 17 18 19 20 21 22 23 24 25 26 27 28 29 30 31 32 33 34 35 36 37 38 39 40 41 42 43 44 45 46 47 48 49 50
000
ASUS43 KLSX 281310
RWRMO

WEATHER SUMMARY FOR MISSOURI
NATIONAL WEATHER SERVICE SPRINGFIELD MO
800 AM CDT SAT MAY 28 2016

NOTE: "FAIR" INDICATES FEW OR NO CLOUDS BELOW 12,000 FEET WITH NO
       SIGNIFICANT WEATHER AND/OR OBSTRUCTIONS TO VISIBILITY.
       CURRENT SKY AND/OR WEATHER CONDITIONS ARE NOT AVAILABLE FOR
       CHILLICOTHE AND FARMINGTON.

MOZ001>031-035>038-043-044-053-054-281400-
...NORTHERN AND WESTERN MISSOURI...

CITY           SKY/WX    TMP DP  RH WIND       PRES   REMARKS
KANSAS CTY INT CLOUDY    63  60  90 S13       29.78S
KANSAS C DTWN  PTSUNNY   64  60  87 S10       29.79R
LEE`S SUMMIT   CLOUDY    64  61  90 S15       29.81R
ST JOSEPH      CLOUDY    61  58  90 S7        29.77R
CHILLICOTHE      N/A     64  62  93 S5        29.81R
KIRKSVILLE     CLOUDY    65  62  90 S9        29.84R

$$
MOZ066>068-077>081-088>096-101>105-281400-
...SOUTHWEST MISSOURI...

CITY           SKY/WX    TMP DP  RH WIND       PRES   REMARKS
SPRINGFIELD    CLOUDY    65  61  87 S12       29.88R
JOPLIN         PTSUNNY   66  61  84 SW16      29.87R
BRANSON        PTSUNNY   63  63 100 SE5       29.91R

$$
MOZ032>034-039>042-045>050-055>058-069>072-281400-
...CENTRAL MISSOURI...

CITY           SKY/WX    TMP DP  RH WIND       PRES   REMARKS
COLUMBIA       CLOUDY    68  65  90 S9        29.85F
JEFFERSON CITY MOSUNNY   68  64  87 SE7       29.86R
ROLLA          MOSUNNY   67  64  90 S10       29.88R
SEDALIA        MOSUNNY   68  62  81 S13       29.84R
WHITEMAN AFB   CLOUDY    66  66 100 SW13      29.81R
WARRENSBURG    SUNNY     63  63 100 S7        29.82S

$$
MOZ051-052-059>065-281400-
...EAST CENTRAL MISSOURI...

CITY           SKY/WX    TMP DP  RH WIND       PRES   REMARKS
ST LOUIS INTL  CLOUDY    70  64  81 S10       29.92R
SPIRIT OF STL  CLOUDY    69  65  86 S10       29.89R
ST CHARLES     PTSUNNY   69  66  90 S12       29.90R

$$
MOZ072>076-082>087-097>100-106>115-281400-
...SOUTH CENTRAL AND SOUTHEAST MISSOURI...

CITY           SKY/WX    TMP DP  RH WIND       PRES   REMARKS
CAPE GIRARDEAU CLOUDY    69  66  90 S9        29.96R
FARMINGTON     CLOUDY    67  65  93 S9        29.96R
POPLAR BLUFF   CLOUDY    70  66  87 S6        29.95R
WEST PLAINS    PTSUNNY   68  62  81 S8        29.95R

$$




USA.gov is the U.S. government's official web portal to all federal, state and local government web resources and services.